Location: Borz?cin
(51.1714°N, 19.6030°E)
Time: 07:11:51
(UTC+00:00)

USA 234 - Pass Details

Date: 19 May 2025
Orbit: 1097 x 1111 km, 123.0° (Epoch: 13 June)

Event Time Altitude Azimuth Distance (km) Brightness Sun altitude
Rises 19:02:32 0° 58° (ENE) 3,927 6.0 -4.7°
Reaches altitude 10° 19:05:13 10° 66° (ENE) 2,968 5.3 -5.0°
Maximum altitude 19:11:20 40° 135° (SE) 1,566 3.7 -5.7°
Drops below altitude 10° 19:17:26 10° 203° (SSW) 2,964 5.3 -6.4°
Sets 19:20:06 0° 211° (SSW) 3,921 6.0 -6.7°
